Regional Weather Roundup
Issued by NWS

Home | Current Version | Previous Version | Text Only | Print | Product List | Glossary Off
Versions: 1 2 3 4 5 6 7 8 9 10 11 12 13 14 15 16 17 18 19 20 21 22 23 24 25 26 27 28 29 30 31 32 33 34 35 36 37 38 39 40 41 42 43 44 45 46 47 48 49 50

000
ASUS45 KABQ 051401
RWRNM
NEW MEXICO REGIONAL WEATHER ROUNDUP
NATIONAL WEATHER SERVICE ALBUQUERQUE NM
800 AM MDT SUN JUL 05 2015

NOTE: "FAIR" MEANS FEW OR NO CLOUDS BELOW 12,000 FEET AGL WITH NO
       SIGNIFICANT WEATHER OR OBSTRUCTIONS TO VISION.

      THIS PRODUCT IS RELEASED AS TWO VERSIONS.  ONE VERSION NEAR
      THE TOP OF THE HOUR CONTAINING PRELIMINARY DATA FROM ALBUQUERQUE
      AND OTHER STATIONS.  A FINAL VERSION WITH ADDITIONAL DATA IS
      ISSUED ABOUT 10 MINUTES AFTER THE HOUR.

NMZ501-503-504-510>518-051500-
NORTHWEST PLATEAU/NORTHCENTRAL MOUNTAINS

CITY           SKY/WX    TMP DP  RH WIND       PRES   REMARKS
FARMINGTON     CLOUDY    66  59  78 E3        30.16R
SANTA FE       MOSUNNY   66  54  65 SW3       30.20R
TAOS           MOSUNNY   61  45  55 CALM      30.26S

$$
NMZ402-403-502-505>509-051500-
WESTCENTRAL MOUNTAINS/SOUTHWEST MOUNTAINS

CITY           SKY/WX    TMP DP  RH WIND       PRES   REMARKS
GALLUP         CLOUDY    64  56  75 S3        30.24R
GRANTS         PTSUNNY   63  58  83 N3        30.26S
SILVER CITY      N/A     68  61  77 NW7       30.20R

$$
NMZ407-409-411-412-051500-
SOUTHERN DESERTS

CITY           SKY/WX    TMP DP  RH WIND       PRES   REMARKS
LORDSBURG      DRIZZLE   73  61  64 W9        30.11S
DEMING         CLOUDY    70  66  87 SW7       30.11R
HOLLOMAN AFB   SUNNY     74  61  63 S8        30.07R
ALAMOGORDO     SUNNY     73  59  60 S12       30.09R
T OR C         PTSUNNY   73  62  68 CALM      30.12R

$$
NMZ519>523-051500-
CENTRAL VALLEYS/CENTRAL HIGHLANDS

CITY           SKY/WX    TMP DP  RH WIND       PRES   REMARKS
ALBUQUERQUE    PTSUNNY   70  59  68 S7        30.16R
DOUBLE EAGLE   PTSUNNY   70  57  64 CALM      30.19R
CLINES CORNERS MOSUNNY   67  53  61 W10       30.23R
BELEN          FAIR      74  55  52 SE6       30.15R
SOCORRO        NOT AVBL

$$
NMZ524>526-539-540-051500-
SOUTHCENTRAL MOUNTAINS

CITY           SKY/WX    TMP DP  RH WIND       PRES   REMARKS
RUIDOSO        NOT AVBL

$$
NMZ527>531-051500-
NORTHEAST HIGHLANDS/NORTHEAST PLAINS

CITY           SKY/WX    TMP DP  RH WIND       PRES   REMARKS
LAS VEGAS      MOSUNNY   67  56  67 CALM      30.20R
RATON          SUNNY     64  55  72 NE3       30.15R
CLAYTON        SUNNY     76  59  55 SW16G24   30.06S

$$
NMZ532>537-051500-
EASTCENTRAL PLAINS

CITY           SKY/WX    TMP DP  RH WIND       PRES   REMARKS
TUCUMCARI      SUNNY     77  61  57 SW16      30.05R
CANNON AFB     SUNNY     71  64  80 SW10      30.09S
CLOVIS AIRPORT MOSUNNY   72  63  73 S12         N/A

$$
NMZ028-029-538-051500-
SOUTHEAST PLAINS

CITY           SKY/WX    TMP DP  RH WIND       PRES   REMARKS
ROSWELL        PTSUNNY   75  63  66 S12       30.05R
ARTESIA        MOSUNNY   75  64  69 S13       30.06R
CARLSBAD       MOSUNNY   76  64  66 SE12      30.03R
HOBBS          MOSUNNY   73  70  88 SE12      30.08S


$$



USA.gov is the U.S. government's official web portal to all federal, state and local government web resources and services.